KUIPER-00186

导读

KUIPER-00186是美国亚马逊公司“柯伊伯计划”(Project Kuiper)低轨卫星互联网星座中的卫星,于2025年12月15日发射。柯伊伯计划旨在通过数千颗低轨卫星组网,为全球尤其是偏远区域提供高速低延迟、可负担的互联网接入服务,对标SpaceX星链项目,KUIPER-00186是该星座构建全球卫星互联网覆盖的组成单元。

Basic Information
目录编号:
67140
目录名称:
KUIPER-00186
国际标识:
2025-301H
轨道中心:
EARTH
卫星名称:
KUIPER-00186
卫星全名:
KUIPER-00186
卫星状态:
在轨 (已飞行270 天)
发射日期:
2025-12-15 UTC
国别 :
美国 (US)
星等 :
--
This satellite is enrolled in the Space Conjunction Data Service (SCDS) and the current flight risk assessment level is: No High Risk
Orbit Information
数据来源 国际轨道数据 AOE轨道数据
星历时间 2026-09-11T14:50:27+0800
10小时前
查看轨道信息
2026-09-10T17:00:00+0800
1天前
查看轨道信息
半长轴 7007.715km 7007.685km
偏心率 0.0000427 0.0000354
轨道倾角 51.905° 51.903°
近地点辐角 92.766° 102.795°
升交点赤经 337.448° 341.472°
平近点角 267.335° 85.998°
近地点 629.278km 629.299km
远地点 629.878km 629.797km
周期 97.303分钟 97.302分钟
每日圈数 14.799196 14.799292
Detailed Information
使用方式:
暂无
2D Orbit Map
3D Orbit Map
Orbit Altitude Analysis Chart
Orbit Inclination Analysis Chart
Orbit Comprehensive Analysis Chart
View Comprehensive Chart
Conjunction Data List
Event ID Objects TCA Miss Dist (km) Collision Risk Probability Collision Risk Index (CRI) Action
CDM_260912-174205-278506-714021
2026-09-12T
17:42:36+0000
1.503 km
极远距离
5.681825E-6 低风险 0.5
CDM_260905-101205-775706-714021
BB4 (57757)
2026-09-05T
10:12:33+0000
1.561 km
极远距离
4.586038E-6 低风险 0.48
CDM_260914-073206-007906-714021
2026-09-14T
07:32:45+0000
1.495 km
极远距离
4.340287E-6 低风险 0.48
CDM_260911-225102-776806-714021
SL-8 DEB (27768)
2026-09-11T
22:51:56+0000
2.863 km
极远距离
1.394521E-6 低风险 0.38
Miss Distance Evolution Trend with All Objects
Collision Probability Evolution Trend with All Objects